Printer-friendly version

IAU Minor Planet Center

Minor Planet Center

MPEC 2006-H09 : 2006 DZ169

The following Minor Planet Electronic Circular may be linked-to from your own Web pages, but must not otherwise be redistributed electronically.


Read MPEC 2006-H08 Read MPEC 2006-H10


M.P.E.C. 2006-H09                                Issued 2006 Apr. 19, 17:45 UT

     The Minor Planet Electronic Circulars contain information on unusual
         minor planets and routine data on comets.  They are published
   on behalf of Commission 20 of the International Astronomical Union by the
          Minor Planet Center, Smithsonian Astrophysical Observatory,
                          Cambridge, MA 02138, U.S.A.

                  Supported in part by the Brinson Foundation
                  Supported in part by the TABASGO Foundation
             Prepared using the Tamkin Foundation Computer Network

                              MPC@CFA.HARVARD.EDU
          URL http://cfa-www.harvard.edu/iau/mpc.html  ISSN 1523-6714

                                  2006 DZ169

                           Revision to MPEC 2006-F23

Additional Observations:
     K06DG9Z 9 1983 10 08.46572 22 05 25.23 -17 12 13.9                 EH009260
     K06DG9Z 9 1983 10 08.50739 22 05 28.08 -17 11 22.4                 EH009260
     K06DG9Z 9 1986 09 01.43403 01 58 59.72 +06 44 00.2                 EH009261
     K06DG9Z 9 1986 09 01.49653 01 58 57.66 +06 44 23.4                 EH009261
     K06DG9Z  C2003 03 30.24922010 34 15.059+14 13 40.32         20.14V EH009645
     K06DG9Z  C2003 03 30.25269210 34 14.827+14 13 40.75         20.96  EH009645

Observer details:
260 Siding Spring-DSS.  Measurers S. Foglia, G. Forti, M. Tombelli.
261 Palomar-DSS.  Measurers M. Tombelli, S. Foglia, G. Forti.  1.2-m Schmidt.
645 Apache Point--Sloan Digitial Sky Survey.  Observers Sloan Digital Sky
    Survey Collaboration.

Orbital elements:
2006 DZ169 = 2006 EZ1                                    Earth MOID = 0.2256 AU
Epoch 2006 Mar. 6.0 TT = JDT 2453800.5                  MPC
M 290.10159              (2000.0)            P               Q
n   0.33972680     Peri.  275.38235     +0.34905612     +0.93661741
a   2.0341494      Node    15.15332     -0.80766225     +0.31699002
e   0.4086131      Incl.    6.61814     -0.47522786     +0.14921510
P   2.90           H   17.2           G   0.15           U   2
Residuals in seconds of arc
831008 260  1.8+  0.2+    060323 703  1.1-  0.5+    060324 704  0.4-  0.1+
831008 260  0.5-  2.4-    060323 703  1.2+  0.7+    060324 704  1.0+  0.5+
860901 261  0.3+  1.1-    060323 703  0.4-  0.3-    060324 704  0.7+  1.1+
860901 261  0.6+  1.1-    060323 703  0.4-  0.3-    060324 704  1.2+  0.2+
030330 645  0.2-  0.3-    060323 703  0.6-  0.6-    060324 704  0.4+  0.3+
030330 645  0.1-  0.3-    060323 703  0.3+  0.6-    060324 704  0.9+  1.2+
060222 699  0.1-  0.1+    060323 703  0.6-  0.4+    060324 704 (2.2+  0.3+)
060222 699  1.3+  0.0     060323 A80  0.3+  0.5+    060324 704  0.5+  0.4-
060222 699  1.4+  0.2-    060323 A80  0.1+  0.0     060329 704  1.2+  0.0
060222 699  0.6-  0.8-    060323 024  1.0-  0.3+    060329 704 (1.8+  2.3+)
060227 691  0.5+  0.1-    060323 024  0.7-  0.2+    060329 704  1.8+  1.6+
060227 691  0.5+  0.0     060323 024  0.6-  0.3+    060329 704  1.8+  0.2-
060227 691  0.4+  0.2+    060323 246  0.6+  0.1+    060417 734  0.8-  0.6-
060303 408  0.3+  0.2+    060323 246  0.9+  0.7+    060417 734  0.1-  0.3-
060303 408  0.3-  0.2+    060323 246  0.0   1.0+    060417 734  0.9-  0.4-
060304 408  0.1-  1.0+    060323 A44  0.2+  0.2+    060418 703  0.1+  1.0-
060304 408  0.0   1.0+    060323 246  0.7+  0.1+    060418 703  0.6-  0.3-
060306 691  0.3+  0.0     060323 246  0.2-  0.5+    060418 703  0.3+  0.8-
060306 691  0.1+  0.0     060323 A44  0.1-  0.1+    060418 703  1.0-  0.2-
060306 691  0.3+  0.4+    060323 A44  0.2-  0.0

Ephemeris:
2006 DZ169               a,e,i = 2.03, 0.41, 7                   q = 1.2030
Date    TT    R. A. (2000) Decl.     Delta      r     Elong.  Phase     V
2006 04 15    11 18.63   +06 30.6    0.979    1.880   143.1    18.7    19.5
2006 04 25    11 09.72   +06 30.0    1.000    1.827   131.3    24.4    19.6
2006 05 05    11 05.01   +06 04.6    1.033    1.774   120.7    29.3    19.8
2006 05 15    11 04.66   +05 15.4    1.072    1.720   111.3    33.2    19.9
2006 05 25    11 08.41   +04 04.7    1.115    1.666   103.0    36.3    20.0
2006 06 04    11 15.87   +02 34.1    1.157    1.612    95.7    38.8    20.1
2006 06 14    11 26.59   +00 45.6    1.195    1.559    89.3    40.6    20.2
2006 06 24    11 40.21   -01 19.4    1.229    1.507    83.7    42.1    20.2
2006 07 04    11 56.49   -03 39.6    1.258    1.456    78.9    43.2    20.2
2006 07 14    12 15.25   -06 13.4    1.280    1.408    74.7    44.1    20.2
2006 07 24    12 36.44   -08 58.6    1.296    1.363    71.1    44.8    20.2
2006 08 03    13 00.11   -11 53.0    1.307    1.322    68.0    45.4    20.1
2006 08 13    13 26.36   -14 52.6    1.314    1.285    65.6    45.9    20.1
2006 08 23    13 55.37   -17 52.7    1.318    1.254    63.6    46.2    20.0
2006 09 02    14 27.34   -20 47.0    1.321    1.230    62.1    46.4    20.0
2006 09 12    15 02.38   -23 27.2    1.324    1.213    61.0    46.5    20.0
2006 09 22    15 40.49   -25 43.8    1.330    1.204    60.2    46.3    20.0

Timothy B. Spahr             (C) Copyright 2006 MPC           M.P.E.C. 2006-H09

Read MPEC 2006-H08 Read MPEC 2006-H10


Our Web policy. Index to the CBAT/MPC/ICQ pages.


Valid HTML 4.01!